Simultaneous Nadir Overpasses (SNOs) Predictions

Prediction of SNOs between GOES-17 and AQUA Satellite Orbit:

Table of predicted SNOs for the next 14.0 days since TLE Epoch: 12/6/2019
Index Date Time (GOES-17) GOES-17 Lat,Lon AQUA Lat,Lon Distance(km) Time Diff (sec)
1 12/06/2019 22:54:31 -0.01,-137.20 -0.49,-139.38 248.70 80
2 12/08/2019 22:39:41 -0.01,-137.19 0.18,-136.43 86.44 80
3 12/09/2019 11:03:37 0.01,-137.19 0.93,-141.59 499.71 80
4 12/10/2019 22:27:30 -0.01,-137.17 0.79,-133.47 420.68 80
5 12/11/2019 10:51:26 0.02,-137.17 0.32,-138.63 165.67 80
6 12/13/2019 10:36:35 0.02,-137.14 -0.30,-135.67 167.34 80
7 12/13/2019 23:00:39 -0.02,-137.13 -0.81,-140.86 424.43 80
8 12/15/2019 10:24:24 0.01,-137.11 -0.91,-132.72 499.42 80
9 12/15/2019 22:48:28 -0.02,-137.09 -0.19,-137.91 92.51 80
10 12/17/2019 22:33:37 -0.01,-137.05 0.43,-134.95 238.89 80
11 12/18/2019 10:57:33 0.02,-137.05 0.67,-140.11 347.88 80
12 12/20/2019 10:45:22 0.02,-137.00 0.04,-137.15 16.87 80




NCC Satellite Simultaneous Nadir Overpasses (SNOs) Prediction Service
